QPF
0.01 0.01 0.01 0.00 0.00 0.00 0.00 0.00 0.00 0.00 0.00 0.00 0.00 0.00 0.00 0.00 0.00 0.00 0.00 0.00 0.00 0.00 0.00 0.00 0.00 0.01 0.01 0.01 0.01 0.01 0.01 0.02 0.02 0.02 0.02 0.03 0.03 0.04
0.01 0.01 0.00 0.00 0.00 0.00 0.00 0.01 0.01 0.01 0.01 0.01 0.00 0.00 0.00 0.00 0.00 0.00 0.00 0.00 0.00 0.00 0.00 0.00 0.01 0.01 0.01 0.01 0.01 0.02 0.02 0.02 0.02 0.03 0.03 0.04 0.04 0.05
0.01 0.01 0.00 0.00 0.00 0.01 0.01 0.01 0.01 0.01 0.01 0.01 0.00 0.00 0.00 0.00 0.00 0.00 0.00 0.00 0.00 0.00 0.00 0.00 0.01 0.01 0.01 0.02 0.02 0.02 0.02 0.02 0.02 0.03 0.03 0.04 0.05 0.05
0.01 0.00 0.00 0.00 0.01 0.00 0.00 0.00 0.00 0.00 0.01 0.00 0.00 0.00 0.00 0.00 0.00 0.00 0.00 0.00 0.00 0.00 0.00 0.00 0.01 0.01 0.01 0.02 0.02 0.02 0.02 0.02 0.02 0.03 0.03 0.04 0.04 0.04
0.01 0.01 0.00 0.00 0.00 0.00 0.00 0.00 0.00 0.00 0.00 0.00 0.00 0.00 0.00 0.00 0.00 0.00 0.00 0.00 0.00 0.00 0.00 0.00 0.00 0.01 0.01 0.02 0.02 0.02 0.01 0.02 0.02 0.02 0.03 0.03 0.03 0.03
0.00 0.00 0.00 0.00 0.00 0.00 0.00 0.00 0.00 0.00 0.00 0.01 0.00 0.00 0.00 0.00 0.00 0.00 0.00 0.01 0.01 0.00 0.00 0.00 0.00 0.00 0.01 0.01 0.01 0.01 0.01 0.01 0.02 0.02 0.02 0.03 0.03 0.03
0.00 0.00 0.00 0.00 0.00 0.00 0.00 0.00 0.00 0.01 0.01 0.01 0.01 0.01 0.01 0.01 0.01 0.01 0.01 0.01 0.00 0.00 0.00 0.00 0.00 0.00 0.00 0.00 0.00 0.00 0.01 0.01 0.02 0.02 0.02 0.03 0.03 0.03
0.00 0.00 0.00 0.00 0.00 0.00 0.00 0.01 0.01 0.01 0.01 0.01 0.01 0.01 0.01 0.01 0.01 0.02 0.02 0.02 0.01 0.00 0.01 0.00 0.00 0.00 0.00 0.00 0.00 0.01 0.01 0.01 0.02 0.02 0.02 0.02 0.02 0.03
0.00 0.00 0.00 0.00 0.00 0.00 0.00 0.01 0.01 0.01 0.01 0.01 0.01 0.01 0.01 0.02 0.02 0.02 0.02 0.02 0.02 0.01 0.02 0.01 0.00 0.00 0.00 0.00 0.00 0.01 0.01 0.01 0.01 0.01 0.02 0.02 0.02 0.03
0.00 0.00 0.00 0.00 0.00 0.00 0.00 0.00 0.00 0.00 0.00 0.00 0.01 0.01 0.01 0.02 0.02 0.03 0.03 0.02 0.01 0.01 0.01 0.02 0.01 0.00 0.00 0.00 0.00 0.00 0.01 0.01 0.01 0.01 0.01 0.02 0.02 0.02
0.00 0.00 0.00 0.00 0.00 0.00 0.00 0.00 0.00 0.00 0.00 0.00 0.01 0.01 0.01 0.01 0.01 0.02 0.02 0.02 0.02 0.01 0.01 0.02 0.01 0.00 0.00 0.00 0.00 0.00 0.00 0.00 0.00 0.01 0.01 0.01 0.01 0.02
0.00 0.00 0.00 0.00 0.00 0.00 0.00 0.00 0.00 0.01 0.00 0.00 0.01 0.01 0.00 0.00 0.01 0.01 0.01 0.02 0.02 0.02 0.01 0.01 0.01 0.01 0.01 0.00 0.00 0.00 0.00 0.00 0.00 0.00 0.00 0.00 0.01 0.02
0.00 0.00 0.00 0.00 0.00 0.00 0.00 0.00 0.01 0.01 0.01 0.01 0.01 0.01 0.00 0.00 0.00 0.00 0.01 0.01 0.02 0.02 0.01 0.03 0.02 0.02 0.02 0.01 0.00 0.00 0.00 0.00 0.00 0.00 0.00 0.00 0.01 0.02
0.00 0.00 0.00 0.00 0.00 0.00 0.00 0.00 0.01 0.01 0.01 0.01 0.01 0.00 0.00 0.00 0.00 0.00 0.00 0.00 0.01 0.01 0.01 0.02 0.03 0.02 0.03 0.02 0.00 0.00 0.00 0.00 0.00 0.00 0.00 0.00 0.00 0.00
0.00 0.00 0.00 0.00 0.00 0.00 0.00 0.00 0.00 0.00 0.00 0.00 0.00 0.00 0.00 0.00 0.00 0.00 0.00 0.00 0.00 0.00 0.00 0.01 0.02 0.02 0.02 0.02 0.01 0.00 0.00 0.00 0.00 0.00 0.00 0.00 0.00 0.00
0.00 0.00 0.00 0.00 0.00 0.00 0.00 0.00 0.00 0.00 0.00 0.01 0.01 0.00 0.00 0.00 0.00 0.00 0.01 0.01 0.01 0.00 0.00 0.00 0.01 0.01 0.01 0.01 0.01 0.01 0.00 0.00 0.00 0.00 0.00 0.00 0.00 0.00
0.00 0.00 0.00 0.00 0.00 0.00 0.00 0.00 0.00 0.00 0.00 0.00 0.00 0.00 0.00 0.00 0.00 0.00 0.01 0.01 0.01 0.01 0.00 0.00 0.00 0.00 0.00 0.00 0.01 0.00 0.00 0.00 0.00 0.00 0.00 0.00 0.00 0.00
0.00 0.00 0.00 0.00 0.00 0.00 0.00 0.00 0.00 0.00 0.00 0.00 0.00 0.01 0.01 0.01 0.01 0.00 0.01 0.01 0.01 0.01 0.01 0.00 0.00 0.00 0.00 0.00 0.00 0.00 0.00 0.00 0.00 0.00 0.00 0.00 0.00 0.00
0.00 0.00 0.00 0.00 0.00 0.00 0.00 0.00 0.00 0.00 0.00 0.00 0.00 0.01 0.00 0.01 0.01 0.01 0.01 0.01 0.01 0.01 0.01 0.00 0.01 0.01 0.01 0.00 0.00 0.00 0.00 0.00 0.00 0.00 0.00 0.00 0.00 0.00
0.00 0.00 0.00 0.00 0.00 0.00 0.00 0.00 0.00 0.00 0.00 0.00 0.00 0.00 0.01 0.01 0.01 0.01 0.01 0.01 0.01 0.01 0.00 0.00 0.01 0.01 0.02 0.02 0.01 0.00 0.00 0.00 0.00 0.00 0.00 0.00 0.00 0.00
0.00 0.00 0.00 0.00 0.00 0.00 0.00 0.00 0.00 0.00 0.00 0.00 0.00 0.00 0.00 0.01 0.01 0.01 0.01 0.01 0.01 0.01 0.01 0.00 0.00 0.01 0.01 0.01 0.01 0.00 0.00 0.00 0.00 0.01 0.01 0.01 0.00 0.00
0.00 0.00 0.00 0.00 0.00 0.00 0.00 0.00 0.00 0.00 0.00 0.00 0.00 0.00 0.00 0.00 0.01 0.01 0.01 0.01 0.01 0.01 0.01 0.00 0.00 0.00 0.00 0.01 0.01 0.00 0.00 0.00 0.00 0.00 0.00 0.01 0.03 0.03
0.00 0.00 0.00 0.00 0.00 0.00 0.00 0.00 0.00 0.00 0.00 0.00 0.00 0.00 0.00 0.00 0.00 0.01 0.01 0.01 0.01 0.01 0.00 0.00 0.00 0.00 0.00 0.00 0.01 0.00 0.00 0.00 0.00 0.00 0.00 0.00 0.01 0.02
MSLP
1018.97 1019.23 1019.43 1019.57 1019.68 1019.75 1019.82 1019.90 1020.00 1020.14 1020.33 1020.57 1020.85 1021.16 1021.48 1021.80 1022.08 1022.30 1022.45 1022.50 1022.45 1022.29 1022.05 1021.74 1021.38 1020.99 1020.60 1020.21 1019.83 1019.47 1019.10 1018.72 1018.32 1017.87 1017.37 1016.83 1016.25 1015.64
1018.51 1018.79 1019.02 1019.19 1019.31 1019.40 1019.47 1019.55 1019.65 1019.78 1019.95 1020.16 1020.42 1020.70 1020.99 1021.28 1021.53 1021.74 1021.87 1021.93 1021.88 1021.75 1021.54 1021.27 1020.94 1020.59 1020.22 1019.85 1019.48 1019.11 1018.74 1018.35 1017.93 1017.47 1016.97 1016.42 1015.84 1015.25
1018.03 1018.35 1018.59 1018.79 1018.94 1019.05 1019.14 1019.23 1019.34 1019.47 1019.62 1019.82 1020.04 1020.29 1020.54 1020.78 1020.99 1021.16 1021.27 1021.30 1021.26 1021.14 1020.95 1020.70 1020.41 1020.09 1019.76 1019.42 1019.07 1018.72 1018.35 1017.96 1017.54 1017.09 1016.59 1016.06 1015.50 1014.93
1017.57 1017.90 1018.16 1018.38 1018.55 1018.69 1018.81 1018.92 1019.03 1019.17 1019.32 1019.50 1019.71 1019.92 1020.13 1020.33 1020.50 1020.62 1020.68 1020.69 1020.63 1020.50 1020.32 1020.10 1019.83 1019.55 1019.25 1018.94 1018.62 1018.29 1017.94 1017.57 1017.16 1016.73 1016.26 1015.75 1015.22 1014.68
1017.14 1017.46 1017.74 1017.97 1018.16 1018.31 1018.45 1018.58 1018.71 1018.85 1019.02 1019.19 1019.39 1019.58 1019.76 1019.92 1020.05 1020.13 1020.16 1020.13 1020.04 1019.90 1019.72 1019.50 1019.26 1019.00 1018.72 1018.44 1018.15 1017.84 1017.51 1017.16 1016.79 1016.38 1015.94 1015.47 1014.98 1014.47
1016.73 1017.05 1017.32 1017.55 1017.74 1017.90 1018.04 1018.19 1018.33 1018.49 1018.66 1018.85 1019.04 1019.23 1019.41 1019.55 1019.65 1019.71 1019.70 1019.65 1019.54 1019.38 1019.19 1018.97 1018.73 1018.48 1018.22 1017.95 1017.67 1017.39 1017.08 1016.76 1016.41 1016.03 1015.63 1015.20 1014.75 1014.27
1016.37 1016.66 1016.91 1017.12 1017.29 1017.45 1017.59 1017.73 1017.88 1018.05 1018.24 1018.45 1018.66 1018.86 1019.04 1019.19 1019.29 1019.34 1019.32 1019.25 1019.12 1018.95 1018.74 1018.51 1018.27 1018.01 1017.75 1017.49 1017.22 1016.94 1016.65 1016.34 1016.01 1015.66 1015.29 1014.89 1014.48 1014.04
1016.03 1016.28 1016.50 1016.68 1016.82 1016.95 1017.07 1017.20 1017.35 1017.53 1017.73 1017.96 1018.19 1018.43 1018.64 1018.81 1018.93 1018.99 1018.98 1018.91 1018.77 1018.59 1018.38 1018.14 1017.88 1017.61 1017.34 1017.07 1016.80 1016.51 1016.22 1015.92 1015.60 1015.26 1014.91 1014.54 1014.15 1013.75
1015.69 1015.91 1016.08 1016.22 1016.33 1016.42 1016.51 1016.62 1016.76 1016.93 1017.14 1017.39 1017.65 1017.92 1018.16 1018.38 1018.53 1018.63 1018.64 1018.59 1018.47 1018.30 1018.08 1017.83 1017.56 1017.28 1017.00 1016.71 1016.41 1016.12 1015.81 1015.50 1015.18 1014.84 1014.50 1014.14 1013.76 1013.37
1015.35 1015.53 1015.66 1015.75 1015.82 1015.88 1015.93 1016.01 1016.13 1016.29 1016.50 1016.75 1017.04 1017.34 1017.63 1017.88 1018.08 1018.22 1018.29 1018.27 1018.18 1018.03 1017.82 1017.58 1017.30 1017.01 1016.71 1016.40 1016.08 1015.76 1015.44 1015.10 1014.76 1014.41 1014.06 1013.69 1013.32 1012.94
1015.03 1015.16 1015.26 1015.32 1015.35 1015.37 1015.39 1015.44 1015.53 1015.67 1015.86 1016.11 1016.41 1016.72 1017.04 1017.34 1017.59 1017.77 1017.88 1017.92 1017.87 1017.75 1017.58 1017.35 1017.08 1016.79 1016.47 1016.15 1015.81 1015.46 1015.10 1014.74 1014.37 1014.00 1013.62 1013.24 1012.85 1012.47
1014.75 1014.85 1014.92 1014.95 1014.96 1014.95 1014.95 1014.96 1015.02 1015.13 1015.30 1015.53 1015.81 1016.13 1016.46 1016.78 1017.06 1017.29 1017.45 1017.54 1017.54 1017.47 1017.33 1017.13 1016.88 1016.60 1016.28 1015.95 1015.59 1015.21 1014.82 1014.43 1014.02 1013.62 1013.21 1012.80 1012.40 1012.00
1014.57 1014.65 1014.71 1014.73 1014.72 1014.70 1014.67 1014.66 1014.68 1014.75 1014.88 1015.08 1015.32 1015.62 1015.93 1016.25 1016.55 1016.81 1017.01 1017.14 1017.20 1017.17 1017.08 1016.92 1016.71 1016.44 1016.13 1015.78 1015.41 1015.01 1014.59 1014.16 1013.72 1013.27 1012.83 1012.40 1011.97 1011.56
1014.55 1014.62 1014.67 1014.69 1014.69 1014.66 1014.62 1014.58 1014.57 1014.60 1014.67 1014.81 1015.00 1015.25 1015.53 1015.82 1016.11 1016.38 1016.60 1016.77 1016.87 1016.89 1016.84 1016.72 1016.54 1016.29 1015.99 1015.65 1015.26 1014.83 1014.39 1013.92 1013.44 1012.97 1012.49 1012.03 1011.59 1011.16
1014.73 1014.81 1014.86 1014.90 1014.90 1014.87 1014.82 1014.76 1014.71 1014.69 1014.70 1014.76 1014.88 1015.06 1015.27 1015.52 1015.78 1016.03 1016.26 1016.44 1016.57 1016.63 1016.62 1016.53 1016.38 1016.15 1015.86 1015.51 1015.11 1014.67 1014.19 1013.69 1013.19 1012.67 1012.17 1011.69 1011.23 1010.79
1015.14 1015.23 1015.30 1015.34 1015.36 1015.33 1015.27 1015.19 1015.10 1015.01 1014.95 1014.93 1014.97 1015.05 1015.19 1015.37 1015.58 1015.80 1016.01 1016.19 1016.32 1016.40 1016.42 1016.35 1016.22 1016.00 1015.71 1015.36 1014.94 1014.48 1013.98 1013.45 1012.91 1012.38 1011.85 1011.35 1010.87 1010.43
1015.77 1015.87 1015.95 1016.01 1016.03 1016.00 1015.93 1015.82 1015.68 1015.54 1015.40 1015.29 1015.23 1015.22 1015.27 1015.37 1015.51 1015.67 1015.85 1016.01 1016.14 1016.22 1016.23 1016.18 1016.04 1015.83 1015.54 1015.17 1014.74 1014.25 1013.72 1013.17 1012.61 1012.05 1011.51 1010.99 1010.50 1010.04
1016.57 1016.67 1016.76 1016.83 1016.85 1016.81 1016.72 1016.58 1016.39 1016.18 1015.97 1015.77 1015.62 1015.51 1015.47 1015.49 1015.55 1015.66 1015.78 1015.91 1016.01 1016.07 1016.07 1016.00 1015.86 1015.63 1015.32 1014.94 1014.48 1013.98 1013.43 1012.86 1012.28 1011.71 1011.14 1010.61 1010.10 1009.62
1017.44 1017.55 1017.64 1017.71 1017.72 1017.67 1017.55 1017.37 1017.13 1016.87 1016.58 1016.31 1016.07 1015.89 1015.76 1015.69 1015.69 1015.72 1015.79 1015.87 1015.93 1015.95 1015.92 1015.83 1015.66 1015.41 1015.08 1014.68 1014.21 1013.69 1013.13 1012.55 1011.95 1011.36 1010.78 1010.23 1009.69 1009.19
1018.29 1018.41 1018.49 1018.55 1018.54 1018.47 1018.32 1018.11 1017.83 1017.51 1017.18 1016.84 1016.54 1016.28 1016.09 1015.95 1015.88 1015.85 1015.86 1015.88 1015.90 1015.88 1015.81 1015.68 1015.48 1015.20 1014.85 1014.43 1013.94 1013.41 1012.85 1012.26 1011.66 1011.06 1010.47 1009.89 1009.32 1008.77
1019.06 1019.16 1019.24 1019.27 1019.24 1019.14 1018.97 1018.73 1018.42 1018.07 1017.70 1017.33 1016.98 1016.68 1016.43 1016.25 1016.12 1016.04 1015.99 1015.96 1015.92 1015.86 1015.75 1015.58 1015.34 1015.03 1014.66 1014.22 1013.73 1013.20 1012.64 1012.05 1011.46 1010.86 1010.25 1009.65 1009.04 1008.43
1019.67 1019.76 1019.82 1019.83 1019.78 1019.65 1019.46 1019.19 1018.87 1018.51 1018.12 1017.74 1017.37 1017.05 1016.78 1016.56 1016.39 1016.27 1016.18 1016.11 1016.02 1015.91 1015.75 1015.55 1015.28 1014.95 1014.56 1014.11 1013.62 1013.10 1012.55 1011.97 1011.39 1010.79 1010.18 1009.55 1008.91 1008.24
1020.12 1020.19 1020.22 1020.20 1020.12 1019.98 1019.77 1019.51 1019.18 1018.82 1018.45 1018.07 1017.71 1017.39 1017.11 1016.88 1016.70 1016.55 1016.43 1016.31 1016.19 1016.04 1015.85 1015.61 1015.32 1014.97 1014.57 1014.12 1013.64 1013.13 1012.59 1012.04 1011.47 1010.89 1010.28 1009.64 1008.96 1008.23
Thickness
5555 5548 5542 5535 5528 5522 5516 5510 5504 5504 5506 5499 5489 5481 5472 5465 5459 5453 5448 5443 5437 5431 5426 5422 5417 5413 5409 5405 5401 5398 5395 5393 5391 5390 5390 5391 5391 5392
5549 5542 5536 5529 5522 5514 5507 5501 5494 5490 5490 5489 5479 5471 5462 5455 5448 5442 5437 5431 5424 5418 5412 5407 5402 5397 5392 5388 5384 5380 5377 5374 5373 5372 5371 5372 5372 5373
5542 5537 5530 5523 5515 5507 5500 5493 5486 5480 5477 5477 5468 5461 5452 5444 5437 5430 5424 5418 5412 5405 5398 5392 5386 5381 5376 5371 5367 5363 5359 5356 5354 5353 5352 5352 5353 5354
5537 5531 5524 5515 5508 5501 5493 5486 5480 5473 5467 5464 5459 5450 5441 5433 5425 5417 5410 5404 5397 5391 5383 5377 5371 5365 5360 5355 5349 5345 5341 5337 5335 5334 5334 5334 5334 5335
5531 5524 5517 5509 5501 5494 5486 5479 5472 5464 5456 5450 5446 5438 5429 5420 5412 5405 5397 5390 5383 5376 5369 5362 5356 5349 5344 5338 5333 5328 5324 5321 5319 5318 5317 5317 5317 5318
5524 5516 5509 5501 5494 5486 5478 5471 5463 5454 5446 5438 5432 5425 5416 5407 5398 5391 5385 5376 5369 5361 5354 5347 5340 5334 5328 5323 5318 5313 5309 5306 5304 5303 5302 5302 5303 5303
5515 5508 5500 5492 5484 5477 5469 5461 5453 5444 5435 5426 5419 5411 5403 5394 5385 5376 5368 5362 5354 5346 5339 5333 5326 5321 5315 5310 5305 5300 5296 5293 5291 5290 5290 5290 5291 5292
5508 5499 5492 5483 5475 5467 5458 5450 5441 5432 5423 5414 5406 5397 5388 5379 5370 5361 5352 5345 5340 5333 5323 5318 5311 5307 5303 5298 5293 5287 5284 5282 5281 5280 5280 5280 5281 5282
5500 5492 5483 5475 5466 5459 5450 5440 5431 5420 5410 5401 5392 5382 5374 5365 5355 5347 5337 5329 5323 5317 5309 5305 5300 5296 5292 5288 5282 5278 5275 5273 5272 5271 5271 5272 5273 5274
5491 5483 5475 5467 5457 5448 5440 5431 5421 5410 5399 5389 5379 5369 5358 5349 5339 5331 5323 5317 5310 5304 5298 5293 5290 5286 5282 5279 5275 5271 5268 5266 5265 5264 5264 5266 5267 5269
5480 5472 5465 5457 5448 5439 5430 5420 5410 5399 5387 5375 5365 5355 5345 5335 5326 5318 5310 5303 5300 5295 5288 5281 5279 5275 5273 5272 5269 5265 5263 5262 5260 5260 5260 5261 5262 5265
5471 5462 5453 5445 5436 5426 5417 5408 5397 5387 5376 5365 5354 5344 5334 5325 5315 5306 5297 5291 5286 5283 5278 5271 5268 5264 5264 5265 5263 5261 5260 5259 5258 5258 5257 5258 5259 5261
5462 5453 5444 5434 5424 5414 5405 5395 5384 5374 5364 5353 5343 5334 5325 5315 5305 5296 5287 5279 5274 5270 5266 5261 5258 5255 5252 5256 5257 5258 5257 5256 5256 5257 5256 5256 5257 5258
5453 5443 5434 5423 5413 5403 5393 5382 5371 5361 5351 5341 5332 5324 5315 5306 5296 5287 5279 5271 5265 5260 5257 5252 5250 5248 5247 5248 5251 5254 5253 5253 5254 5254 5255 5256 5257 5258
5442 5432 5422 5412 5402 5392 5381 5370 5360 5350 5339 5330 5321 5313 5304 5295 5287 5280 5273 5267 5261 5256 5252 5248 5245 5244 5242 5242 5245 5248 5249 5251 5252 5252 5253 5254 5256 5258
5430 5420 5411 5401 5391 5380 5370 5360 5349 5338 5328 5318 5310 5302 5294 5286 5279 5273 5267 5262 5258 5254 5250 5246 5242 5240 5240 5241 5242 5244 5246 5247 5249 5250 5251 5253 5255 5257
5420 5410 5401 5391 5381 5370 5360 5349 5338 5327 5317 5308 5300 5292 5285 5278 5272 5266 5260 5256 5252 5250 5248 5244 5241 5240 5240 5239 5240 5243 5245 5246 5247 5248 5249 5252 5255 5258
5410 5401 5392 5382 5371 5360 5349 5339 5328 5318 5308 5298 5290 5283 5276 5270 5265 5260 5255 5251 5248 5246 5243 5241 5239 5239 5242 5244 5240 5240 5242 5244 5245 5246 5247 5250 5254 5258
5400 5391 5381 5370 5360 5349 5338 5328 5318 5308 5298 5290 5282 5275 5269 5263 5259 5254 5251 5247 5244 5242 5240 5237 5235 5235 5237 5239 5242 5239 5239 5241 5243 5245 5247 5249 5252 5257
5390 5381 5370 5360 5349 5339 5328 5318 5309 5299 5290 5283 5275 5269 5262 5257 5253 5249 5246 5242 5239 5238 5237 5236 5234 5231 5231 5232 5234 5237 5237 5238 5241 5243 5246 5249 5252 5256
5380 5371 5360 5350 5339 5329 5319 5309 5300 5291 5283 5276 5269 5262 5257 5252 5248 5244 5241 5238 5236 5235 5234 5233 5231 5229 5228 5229 5232 5237 5240 5239 5239 5240 5244 5247 5252 5258
5371 5361 5351 5340 5330 5320 5310 5301 5292 5284 5276 5269 5263 5257 5252 5247 5243 5240 5237 5235 5234 5232 5231 5231 5230 5229 5229 5230 5232 5235 5239 5240 5242 5243 5244 5245 5247 5252
5361 5351 5342 5331 5321 5312 5302 5293 5284 5277 5270 5263 5257 5252 5247 5243 5240 5237 5234 5233 5231 5230 5229 5229 5230 5230 5229 5230 5231 5234 5236 5239 5243 5246 5248 5249 5249 5251